owner,sensor,date,latitude,longitude,vertical_datum,sea_water_temperature,qcFlag 
TCOON,ioos:station:TCOON:171:1,2014-05-01T00:00:00Z,27.4847,-97.3181,0.0,22.8,2 
TCOON,ioos:station:TCOON:171:1,2014-05-01T01:00:00Z,27.4847,-97.3181,0.0,22.6,2 
TCOON,ioos:station:TCOON:171:1,2014-05-01T02:00:00Z,27.4847,-97.3181,0.0,22.4,2 
TCOON,ioos:station:TCOON:171:1,2014-05-01T03:00:00Z,27.4847,-97.3181,0.0,22.0,2 
TCOON,ioos:station:TCOON:171:1,2014-05-01T04:00:00Z,27.4847,-97.3181,0.0,21.8,2 
TCOON,ioos:station:TCOON:171:1,2014-05-01T05:00:00Z,27.4847,-97.3181,0.0,21.8,2 
TCOON,ioos:station:TCOON:171:1,2014-05-01T06:30:00Z,27.4847,-97.3181,0.0,21.5,2 
TCOON,ioos:station:TCOON:171:1,2014-05-01T07:00:00Z,27.4847,-97.3181,0.0,21.4,2 
TCOON,ioos:station:TCOON:171:1,2014-05-01T08:00:00Z,27.4847,-97.3181,0.0,21.2,2 
TCOON,ioos:station:TCOON:171:1,2014-05-01T09:00:00Z,27.4847,-97.3181,0.0,20.9,2 
TCOON,ioos:station:TCOON:171:1,2014-05-01T10:00:00Z,27.4847,-97.3181,0.0,20.8,2 
TCOON,ioos:station:TCOON:171:1,2014-05-01T11:00:00Z,27.4847,-97.3181,0.0,20.6,2 
TCOON,ioos:station:TCOON:171:1,2014-05-01T12:00:00Z,27.4847,-97.3181,0.0,20.7,2 
TCOON,ioos:station:TCOON:171:1,2014-05-01T13:00:00Z,27.4847,-97.3181,0.0,20.1,2 
TCOON,ioos:station:TCOON:171:1,2014-05-01T14:00:00Z,27.4847,-97.3181,0.0,20.4,2 
TCOON,ioos:station:TCOON:171:1,2014-05-01T15:00:00Z,27.4847,-97.3181,0.0,20.5,2 
TCOON,ioos:station:TCOON:171:1,2014-05-01T16:00:00Z,27.4847,-97.3181,0.0,19.8,2 
TCOON,ioos:station:TCOON:171:1,2014-05-01T17:00:00Z,27.4847,-97.3181,0.0,20.6,2 
TCOON,ioos:station:TCOON:171:1,2014-05-01T18:00:00Z,27.4847,-97.3181,0.0,20.6,2 
TCOON,ioos:station:TCOON:171:1,2014-05-01T19:00:00Z,27.4847,-97.3181,0.0,20.3,2 
TCOON,ioos:station:TCOON:171:1,2014-05-01T20:12:00Z,27.4847,-97.3181,0.0,20.7,2 
TCOON,ioos:station:TCOON:171:1,2014-05-01T21:00:00Z,27.4847,-97.3181,0.0,20.6,2 
TCOON,ioos:station:TCOON:171:1,2014-05-01T22:00:00Z,27.4847,-97.3181,0.0,19.9,2 
TCOON,ioos:station:TCOON:171:1,2014-05-01T23:00:00Z,27.4847,-97.3181,0.0,19.9,2 
TCOON,ioos:station:TCOON:171:1,2014-05-02T00:00:00Z,27.4847,-97.3181,0.0,19.8,2 
TCOON,ioos:station:TCOON:171:1,2014-05-02T01:00:00Z,27.4847,-97.3181,0.0,19.7,2 
TCOON,ioos:station:TCOON:171:1,2014-05-02T02:00:00Z,27.4847,-97.3181,0.0,19.5,2 
TCOON,ioos:station:TCOON:171:1,2014-05-02T03:00:00Z,27.4847,-97.3181,0.0,19.4,2 
TCOON,ioos:station:TCOON:171:1,2014-05-02T04:00:00Z,27.4847,-97.3181,0.0,19.2,2 
TCOON,ioos:station:TCOON:171:1,2014-05-02T05:00:00Z,27.4847,-97.3181,0.0,19.1,2 
TCOON,ioos:station:TCOON:171:1,2014-05-02T06:00:00Z,27.4847,-97.3181,0.0,19.0,2 
TCOON,ioos:station:TCOON:171:1,2014-05-02T07:00:00Z,27.4847,-97.3181,0.0,18.9,2 
TCOON,ioos:station:TCOON:171:1,2014-05-02T08:00:00Z,27.4847,-97.3181,0.0,19.2,2 
TCOON,ioos:station:TCOON:171:1,2014-05-02T09:00:00Z,27.4847,-97.3181,0.0,19.0,2 
TCOON,ioos:station:TCOON:171:1,2014-05-02T10:00:00Z,27.4847,-97.3181,0.0,18.8,2 
TCOON,ioos:station:TCOON:171:1,2014-05-02T11:00:00Z,27.4847,-97.3181,0.0,18.6,2 
TCOON,ioos:station:TCOON:171:1,2014-05-02T12:00:00Z,27.4847,-97.3181,0.0,19.0,2 
TCOON,ioos:station:TCOON:171:1,2014-05-02T13:00:00Z,27.4847,-97.3181,0.0,18.5,2 
TCOON,ioos:station:TCOON:171:1,2014-05-02T14:00:00Z,27.4847,-97.3181,0.0,18.5,2 
TCOON,ioos:station:TCOON:171:1,2014-05-02T15:00:00Z,27.4847,-97.3181,0.0,18.5,2 
TCOON,ioos:station:TCOON:171:1,2014-05-02T16:00:00Z,27.4847,-97.3181,0.0,18.6,2 
TCOON,ioos:station:TCOON:171:1,2014-05-02T17:00:00Z,27.4847,-97.3181,0.0,19.0,2 
TCOON,ioos:station:TCOON:171:1,2014-05-02T18:00:00Z,27.4847,-97.3181,0.0,19.5,2 
TCOON,ioos:station:TCOON:171:1,2014-05-02T19:00:00Z,27.4847,-97.3181,0.0,20.2,2 
TCOON,ioos:station:TCOON:171:1,2014-05-02T20:00:00Z,27.4847,-97.3181,0.0,20.8,2 
TCOON,ioos:station:TCOON:171:1,2014-05-02T21:00:00Z,27.4847,-97.3181,0.0,21.4,2 
TCOON,ioos:station:TCOON:171:1,2014-05-02T22:00:00Z,27.4847,-97.3181,0.0,20.9,2 
TCOON,ioos:station:TCOON:171:1,2014-05-02T23:00:00Z,27.4847,-97.3181,0.0,20.8,2 
TCOON,ioos:station:TCOON:171:1,2014-05-03T00:00:00Z,27.4847,-97.3181,0.0,21.1,2 
TCOON,ioos:station:TCOON:171:1,2014-05-03T01:00:00Z,27.4847,-97.3181,0.0,21.0,2 
TCOON,ioos:station:TCOON:171:1,2014-05-03T02:00:00Z,27.4847,-97.3181,0.0,20.7,2 
TCOON,ioos:station:TCOON:171:1,2014-05-03T03:00:00Z,27.4847,-97.3181,0.0,20.5,2 
TCOON,ioos:station:TCOON:171:1,2014-05-03T04:00:00Z,27.4847,-97.3181,0.0,20.3,2 
TCOON,ioos:station:TCOON:171:1,2014-05-03T05:00:00Z,27.4847,-97.3181,0.0,20.2,2 
TCOON,ioos:station:TCOON:171:1,2014-05-03T06:00:00Z,27.4847,-97.3181,0.0,20.3,2 
TCOON,ioos:station:TCOON:171:1,2014-05-03T07:00:00Z,27.4847,-97.3181,0.0,20.3,2 
TCOON,ioos:station:TCOON:171:1,2014-05-03T08:00:00Z,27.4847,-97.3181,0.0,19.9,2 
TCOON,ioos:station:TCOON:171:1,2014-05-03T09:00:00Z,27.4847,-97.3181,0.0,19.5,2 
TCOON,ioos:station:TCOON:171:1,2014-05-09T15:00:00Z,27.4847,-97.3181,0.0,24.2,2 
TCOON,ioos:station:TCOON:171:1,2014-05-09T16:00:00Z,27.4847,-97.3181,0.0,24.2,2 
TCOON,ioos:station:TCOON:171:1,2014-05-09T17:00:00Z,27.4847,-97.3181,0.0,24.4,2 
TCOON,ioos:station:TCOON:171:1,2014-05-09T18:00:00Z,27.4847,-97.3181,0.0,24.2,2 
TCOON,ioos:station:TCOON:171:1,2014-05-09T19:00:00Z,27.4847,-97.3181,0.0,24.3,2 
TCOON,ioos:station:TCOON:171:1,2014-05-09T20:00:00Z,27.4847,-97.3181,0.0,24.2,2 
TCOON,ioos:station:TCOON:171:1,2014-05-09T21:00:00Z,27.4847,-97.3181,0.0,24.4,2 
TCOON,ioos:station:TCOON:171:1,2014-05-09T22:00:00Z,27.4847,-97.3181,0.0,24.4,2 
TCOON,ioos:station:TCOON:171:1,2014-05-09T23:00:00Z,27.4847,-97.3181,0.0,24.2,2 
TCOON,ioos:station:TCOON:171:1,2014-05-10T00:00:00Z,27.4847,-97.3181,0.0,24.1,2 
TCOON,ioos:station:TCOON:171:1,2014-05-10T01:00:00Z,27.4847,-97.3181,0.0,23.9,2 
TCOON,ioos:station:TCOON:171:1,2014-05-10T02:00:00Z,27.4847,-97.3181,0.0,23.8,2 
TCOON,ioos:station:TCOON:171:1,2014-05-10T03:00:00Z,27.4847,-97.3181,0.0,23.6,2 
TCOON,ioos:station:TCOON:171:1,2014-05-10T04:00:00Z,27.4847,-97.3181,0.0,23.4,2 
TCOON,ioos:station:TCOON:171:1,2014-05-10T05:00:00Z,27.4847,-97.3181,0.0,23.1,2 
TCOON,ioos:station:TCOON:171:1,2014-05-10T06:00:00Z,27.4847,-97.3181,0.0,23.3,2 
TCOON,ioos:station:TCOON:171:1,2014-05-10T07:00:00Z,27.4847,-97.3181,0.0,23.0,2 
TCOON,ioos:station:TCOON:171:1,2014-05-10T08:00:00Z,27.4847,-97.3181,0.0,23.0,2 
TCOON,ioos:station:TCOON:171:1,2014-05-10T09:00:00Z,27.4847,-97.3181,0.0,22.8,2 
TCOON,ioos:station:TCOON:171:1,2014-05-10T10:00:00Z,27.4847,-97.3181,0.0,22.8,2 
TCOON,ioos:station:TCOON:171:1,2014-05-10T11:00:00Z,27.4847,-97.3181,0.0,22.8,2 
TCOON,ioos:station:TCOON:171:1,2014-05-10T12:00:00Z,27.4847,-97.3181,0.0,22.7,2 
TCOON,ioos:station:TCOON:171:1,2014-05-10T13:00:00Z,27.4847,-97.3181,0.0,22.8,2 
TCOON,ioos:station:TCOON:171:1,2014-05-10T14:00:00Z,27.4847,-97.3181,0.0,22.9,2 
TCOON,ioos:station:TCOON:171:1,2014-05-10T15:00:00Z,27.4847,-97.3181,0.0,23.3,2 
TCOON,ioos:station:TCOON:171:1,2014-05-10T16:00:00Z,27.4847,-97.3181,0.0,23.3,2 
TCOON,ioos:station:TCOON:171:1,2014-05-10T17:00:00Z,27.4847,-97.3181,0.0,24.1,2 
TCOON,ioos:station:TCOON:171:1,2014-05-10T18:00:00Z,27.4847,-97.3181,0.0,25.4,2 
TCOON,ioos:station:TCOON:171:1,2014-05-10T19:00:00Z,27.4847,-97.3181,0.0,25.0,2 
TCOON,ioos:station:TCOON:171:1,2014-05-10T20:00:00Z,27.4847,-97.3181,0.0,25.3,2 
TCOON,ioos:station:TCOON:171:1,2014-05-10T21:00:00Z,27.4847,-97.3181,0.0,26.2,2 
TCOON,ioos:station:TCOON:171:1,2014-05-10T22:00:00Z,27.4847,-97.3181,0.0,26.7,2 
TCOON,ioos:station:TCOON:171:1,2014-05-10T23:00:00Z,27.4847,-97.3181,0.0,27.0,2 
TCOON,ioos:station:TCOON:171:1,2014-05-11T00:00:00Z,27.4847,-97.3181,0.0,26.7,2 
TCOON,ioos:station:TCOON:171:1,2014-05-11T01:00:00Z,27.4847,-97.3181,0.0,26.5,2 
TCOON,ioos:station:TCOON:171:1,2014-05-11T02:00:00Z,27.4847,-97.3181,0.0,26.2,2 
TCOON,ioos:station:TCOON:171:1,2014-05-11T03:00:00Z,27.4847,-97.3181,0.0,25.9,2 
TCOON,ioos:station:TCOON:171:1,2014-05-11T04:00:00Z,27.4847,-97.3181,0.0,25.6,2 
TCOON,ioos:station:TCOON:171:1,2014-05-11T05:00:00Z,27.4847,-97.3181,0.0,25.6,2 
TCOON,ioos:station:TCOON:171:1,2014-05-11T06:30:00Z,27.4847,-97.3181,0.0,25.2,2 
TCOON,ioos:station:TCOON:171:1,2014-05-11T07:00:00Z,27.4847,-97.3181,0.0,25.2,2 
TCOON,ioos:station:TCOON:171:1,2014-05-11T08:00:00Z,27.4847,-97.3181,0.0,25.0,2 
TCOON,ioos:station:TCOON:171:1,2014-05-11T09:00:00Z,27.4847,-97.3181,0.0,25.0,2 
TCOON,ioos:station:TCOON:171:1,2014-05-11T10:00:00Z,27.4847,-97.3181,0.0,24.8,2 
TCOON,ioos:station:TCOON:171:1,2014-05-11T11:00:00Z,27.4847,-97.3181,0.0,24.7,2 
TCOON,ioos:station:TCOON:171:1,2014-05-11T12:00:00Z,27.4847,-97.3181,0.0,24.6,2 
TCOON,ioos:station:TCOON:171:1,2014-05-11T13:00:00Z,27.4847,-97.3181,0.0,24.6,2 
TCOON,ioos:station:TCOON:171:1,2014-05-11T14:00:00Z,27.4847,-97.3181,0.0,24.6,2 
TCOON,ioos:station:TCOON:171:1,2014-05-11T15:00:00Z,27.4847,-97.3181,0.0,24.7,2 
TCOON,ioos:station:TCOON:171:1,2014-05-11T16:00:00Z,27.4847,-97.3181,0.0,25.2,2 
TCOON,ioos:station:TCOON:171:1,2014-05-11T17:00:00Z,27.4847,-97.3181,0.0,25.7,2 
TCOON,ioos:station:TCOON:171:1,2014-05-11T18:00:00Z,27.4847,-97.3181,0.0,26.3,2 
TCOON,ioos:station:TCOON:171:1,2014-05-11T19:00:00Z,27.4847,-97.3181,0.0,26.6,2 
TCOON,ioos:station:TCOON:171:1,2014-05-11T20:00:00Z,27.4847,-97.3181,0.0,26.9,2 
TCOON,ioos:station:TCOON:171:1,2014-05-11T21:00:00Z,27.4847,-97.3181,0.0,26.6,2 
TCOON,ioos:station:TCOON:171:1,2014-05-11T22:00:00Z,27.4847,-97.3181,0.0,26.9,2 
TCOON,ioos:station:TCOON:171:1,2014-05-11T23:00:00Z,27.4847,-97.3181,0.0,26.3,2 
TCOON,ioos:station:TCOON:171:1,2014-05-12T00:00:00Z,27.4847,-97.3181,0.0,26.7,2 
TCOON,ioos:station:TCOON:171:1,2014-05-12T01:00:00Z,27.4847,-97.3181,0.0,26.6,2 
TCOON,ioos:station:TCOON:171:1,2014-05-12T02:00:00Z,27.4847,-97.3181,0.0,26.4,2 
TCOON,ioos:station:TCOON:171:1,2014-05-12T03:00:00Z,27.4847,-97.3181,0.0,26.4,2 
TCOON,ioos:station:TCOON:171:1,2014-05-12T04:00:00Z,27.4847,-97.3181,0.0,25.9,2 
TCOON,ioos:station:TCOON:171:1,2014-05-12T05:00:00Z,27.4847,-97.3181,0.0,26.2,2 
TCOON,ioos:station:TCOON:171:1,2014-05-12T06:30:00Z,27.4847,-97.3181,0.0,26.1,2 
TCOON,ioos:station:TCOON:171:1,2014-05-12T07:00:00Z,27.4847,-97.3181,0.0,26.1,2 
TCOON,ioos:station:TCOON:171:1,2014-05-12T08:00:00Z,27.4847,-97.3181,0.0,26.0,2 
TCOON,ioos:station:TCOON:171:1,2014-05-12T09:00:00Z,27.4847,-97.3181,0.0,26.0,2 
TCOON,ioos:station:TCOON:171:1,2014-05-12T10:00:00Z,27.4847,-97.3181,0.0,26.1,2 
TCOON,ioos:station:TCOON:171:1,2014-05-12T11:00:00Z,27.4847,-97.3181,0.0,25.8,2 
TCOON,ioos:station:TCOON:171:1,2014-05-12T12:00:00Z,27.4847,-97.3181,0.0,25.6,2 
TCOON,ioos:station:TCOON:171:1,2014-05-12T13:00:00Z,27.4847,-97.3181,0.0,25.5,2 
TCOON,ioos:station:TCOON:171:1,2014-05-12T14:00:00Z,27.4847,-97.3181,0.0,25.5,2 
TCOON,ioos:station:TCOON:171:1,2014-05-12T15:00:00Z,27.4847,-97.3181,0.0,26.0,2 
TCOON,ioos:station:TCOON:171:1,2014-05-12T16:00:00Z,27.4847,-97.3181,0.0,26.4,2 
TCOON,ioos:station:TCOON:171:1,2014-05-12T17:00:00Z,27.4847,-97.3181,0.0,26.5,2 
TCOON,ioos:station:TCOON:171:1,2014-05-12T18:00:00Z,27.4847,-97.3181,0.0,26.9,2 
TCOON,ioos:station:TCOON:171:1,2014-05-12T19:00:00Z,27.4847,-97.3181,0.0,26.8,2 
TCOON,ioos:station:TCOON:171:1,2014-05-12T20:00:00Z,27.4847,-97.3181,0.0,27.1,2 
TCOON,ioos:station:TCOON:171:1,2014-05-12T21:00:00Z,27.4847,-97.3181,0.0,26.9,2 
TCOON,ioos:station:TCOON:171:1,2014-05-12T22:00:00Z,27.4847,-97.3181,0.0,27.1,2 
TCOON,ioos:station:TCOON:171:1,2014-05-12T23:00:00Z,27.4847,-97.3181,0.0,27.3,2 
TCOON,ioos:station:TCOON:171:1,2014-05-13T00:00:00Z,27.4847,-97.3181,0.0,27.1,2 
TCOON,ioos:station:TCOON:171:1,2014-05-13T01:00:00Z,27.4847,-97.3181,0.0,26.7,2 
TCOON,ioos:station:TCOON:171:1,2014-05-13T02:00:00Z,27.4847,-97.3181,0.0,26.8,2 
TCOON,ioos:station:TCOON:171:1,2014-05-13T03:00:00Z,27.4847,-97.3181,0.0,26.7,2 
TCOON,ioos:station:TCOON:171:1,2014-05-13T04:00:00Z,27.4847,-97.3181,0.0,26.6,2 
TCOON,ioos:station:TCOON:171:1,2014-05-13T05:00:00Z,27.4847,-97.3181,0.0,26.6,2 
TCOON,ioos:station:TCOON:171:1,2014-05-13T06:30:00Z,27.4847,-97.3181,0.0,26.5,2 
TCOON,ioos:station:TCOON:171:1,2014-05-13T07:00:00Z,27.4847,-97.3181,0.0,26.4,2 
TCOON,ioos:station:TCOON:171:1,2014-05-13T08:00:00Z,27.4847,-97.3181,0.0,26.4,2 
TCOON,ioos:station:TCOON:171:1,2014-05-13T09:00:00Z,27.4847,-97.3181,0.0,26.2,2 
TCOON,ioos:station:TCOON:171:1,2014-05-13T10:00:00Z,27.4847,-97.3181,0.0,26.3,2 
TCOON,ioos:station:TCOON:171:1,2014-05-13T11:00:00Z,27.4847,-97.3181,0.0,25.7,2 
TCOON,ioos:station:TCOON:171:1,2014-05-13T12:00:00Z,27.4847,-97.3181,0.0,25.0,2 
TCOON,ioos:station:TCOON:171:1,2014-05-13T13:00:00Z,27.4847,-97.3181,0.0,24.7,2 
TCOON,ioos:station:TCOON:171:1,2014-05-13T15:00:00Z,27.4847,-97.3181,0.0,24.3,2 
TCOON,ioos:station:TCOON:171:1,2014-05-13T16:00:00Z,27.4847,-97.3181,0.0,23.8,2 
TCOON,ioos:station:TCOON:171:1,2014-05-13T17:00:00Z,27.4847,-97.3181,0.0,23.9,2 
TCOON,ioos:station:TCOON:171:1,2014-05-13T18:00:00Z,27.4847,-97.3181,0.0,25.1,2 
TCOON,ioos:station:TCOON:171:1,2014-05-13T19:00:00Z,27.4847,-97.3181,0.0,24.5,2 
TCOON,ioos:station:TCOON:171:1,2014-05-13T20:00:00Z,27.4847,-97.3181,0.0,24.7,2 
TCOON,ioos:station:TCOON:171:1,2014-05-13T21:00:00Z,27.4847,-97.3181,0.0,24.9,2 
TCOON,ioos:station:TCOON:171:1,2014-05-13T22:00:00Z,27.4847,-97.3181,0.0,24.8,2 
TCOON,ioos:station:TCOON:171:1,2014-05-13T23:00:00Z,27.4847,-97.3181,0.0,24.8,2 
TCOON,ioos:station:TCOON:171:1,2014-05-14T00:00:00Z,27.4847,-97.3181,0.0,24.5,2 
TCOON,ioos:station:TCOON:171:1,2014-05-14T01:00:00Z,27.4847,-97.3181,0.0,24.2,2 
TCOON,ioos:station:TCOON:171:1,2014-05-14T02:00:00Z,27.4847,-97.3181,0.0,24.0,2 
TCOON,ioos:station:TCOON:171:1,2014-05-14T03:00:00Z,27.4847,-97.3181,0.0,23.8,2 
TCOON,ioos:station:TCOON:171:1,2014-05-14T04:00:00Z,27.4847,-97.3181,0.0,23.5,2 
TCOON,ioos:station:TCOON:171:1,2014-05-14T05:00:00Z,27.4847,-97.3181,0.0,23.2,2 
TCOON,ioos:station:TCOON:171:1,2014-05-14T06:30:00Z,27.4847,-97.3181,0.0,22.9,2 
TCOON,ioos:station:TCOON:171:1,2014-05-14T07:00:00Z,27.4847,-97.3181,0.0,22.6,2 
TCOON,ioos:station:TCOON:171:1,2014-05-14T08:00:00Z,27.4847,-97.3181,0.0,22.4,2 
TCOON,ioos:station:TCOON:171:1,2014-05-14T09:00:00Z,27.4847,-97.3181,0.0,22.0,2 
TCOON,ioos:station:TCOON:171:1,2014-05-14T10:00:00Z,27.4847,-97.3181,0.0,21.8,2 
TCOON,ioos:station:TCOON:171:1,2014-05-14T11:00:00Z,27.4847,-97.3181,0.0,21.5,2 
TCOON,ioos:station:TCOON:171:1,2014-05-14T12:00:00Z,27.4847,-97.3181,0.0,21.1,2 
TCOON,ioos:station:TCOON:171:1,2014-05-14T13:00:00Z,27.4847,-97.3181,0.0,21.1,2 
TCOON,ioos:station:TCOON:171:1,2014-05-14T14:00:00Z,27.4847,-97.3181,0.0,20.7,2 
TCOON,ioos:station:TCOON:171:1,2014-05-14T15:00:00Z,27.4847,-97.3181,0.0,20.7,2 
TCOON,ioos:station:TCOON:171:1,2014-05-14T16:00:00Z,27.4847,-97.3181,0.0,20.8,2 
TCOON,ioos:station:TCOON:171:1,2014-05-14T17:00:00Z,27.4847,-97.3181,0.0,20.5,2 
TCOON,ioos:station:TCOON:171:1,2014-05-14T18:00:00Z,27.4847,-97.3181,0.0,21.6,2 
TCOON,ioos:station:TCOON:171:1,2014-05-14T19:00:00Z,27.4847,-97.3181,0.0,22.0,2 
TCOON,ioos:station:TCOON:171:1,2014-05-14T20:00:00Z,27.4847,-97.3181,0.0,22.1,2 
TCOON,ioos:station:TCOON:171:1,2014-05-14T21:00:00Z,27.4847,-97.3181,0.0,22.1,2 
TCOON,ioos:station:TCOON:171:1,2014-05-14T22:00:00Z,27.4847,-97.3181,0.0,22.5,2 
TCOON,ioos:station:TCOON:171:1,2014-05-14T23:00:00Z,27.4847,-97.3181,0.0,22.7,2 
TCOON,ioos:station:TCOON:171:1,2014-05-15T00:00:00Z,27.4847,-97.3181,0.0,22.5,2 
TCOON,ioos:station:TCOON:171:1,2014-05-15T01:00:00Z,27.4847,-97.3181,0.0,22.2,2 
TCOON,ioos:station:TCOON:171:1,2014-05-15T02:00:00Z,27.4847,-97.3181,0.0,22.0,2 
TCOON,ioos:station:TCOON:171:1,2014-05-15T03:00:00Z,27.4847,-97.3181,0.0,21.7,2 
TCOON,ioos:station:TCOON:171:1,2014-05-15T04:00:00Z,27.4847,-97.3181,0.0,21.5,2 
TCOON,ioos:station:TCOON:171:1,2014-05-15T05:00:00Z,27.4847,-97.3181,0.0,21.3,2 
TCOON,ioos:station:TCOON:171:1,2014-05-15T06:30:00Z,27.4847,-97.3181,0.0,20.6,2 
TCOON,ioos:station:TCOON:171:1,2014-05-15T07:00:00Z,27.4847,-97.3181,0.0,20.8,2 
TCOON,ioos:station:TCOON:171:1,2014-05-15T08:00:00Z,27.4847,-97.3181,0.0,20.4,2 
TCOON,ioos:station:TCOON:171:1,2014-05-15T09:00:00Z,27.4847,-97.3181,0.0,20.8,2 
TCOON,ioos:station:TCOON:171:1,2014-05-15T10:00:00Z,27.4847,-97.3181,0.0,20.3,2 
TCOON,ioos:station:TCOON:171:1,2014-05-15T11:00:00Z,27.4847,-97.3181,0.0,20.3,2 
TCOON,ioos:station:TCOON:171:1,2014-05-15T12:00:00Z,27.4847,-97.3181,0.0,20.5,2 
TCOON,ioos:station:TCOON:171:1,2014-05-15T13:00:00Z,27.4847,-97.3181,0.0,20.3,2 
TCOON,ioos:station:TCOON:171:1,2014-05-15T14:00:00Z,27.4847,-97.3181,0.0,20.6,2 
TCOON,ioos:station:TCOON:171:1,2014-05-15T15:00:00Z,27.4847,-97.3181,0.0,20.8,2 
TCOON,ioos:station:TCOON:171:1,2014-05-15T16:00:00Z,27.4847,-97.3181,0.0,21.1,2 
TCOON,ioos:station:TCOON:171:1,2014-05-15T17:00:00Z,27.4847,-97.3181,0.0,21.7,2 
TCOON,ioos:station:TCOON:171:1,2014-05-15T18:00:00Z,27.4847,-97.3181,0.0,22.4,2 
TCOON,ioos:station:TCOON:171:1,2014-05-15T19:00:00Z,27.4847,-97.3181,0.0,23.1,2 
TCOON,ioos:station:TCOON:171:1,2014-05-15T20:00:00Z,27.4847,-97.3181,0.0,23.3,2 
TCOON,ioos:station:TCOON:171:1,2014-05-15T21:00:00Z,27.4847,-97.3181,0.0,23.6,2 
TCOON,ioos:station:TCOON:171:1,2014-05-15T22:00:00Z,27.4847,-97.3181,0.0,23.7,2 
TCOON,ioos:station:TCOON:171:1,2014-05-15T23:00:00Z,27.4847,-97.3181,0.0,23.6,2 
TCOON,ioos:station:TCOON:171:1,2014-05-16T00:00:00Z,27.4847,-97.3181,0.0,23.5,2 
TCOON,ioos:station:TCOON:171:1,2014-05-16T01:00:00Z,27.4847,-97.3181,0.0,23.2,2 
TCOON,ioos:station:TCOON:171:1,2014-05-16T02:00:00Z,27.4847,-97.3181,0.0,23.0,2 
TCOON,ioos:station:TCOON:171:1,2014-05-16T03:00:00Z,27.4847,-97.3181,0.0,22.7,2 
TCOON,ioos:station:TCOON:171:1,2014-05-16T04:00:00Z,27.4847,-97.3181,0.0,22.4,2 
TCOON,ioos:station:TCOON:171:1,2014-05-16T05:00:00Z,27.4847,-97.3181,0.0,22.1,2 
TCOON,ioos:station:TCOON:171:1,2014-05-16T06:00:00Z,27.4847,-97.3181,0.0,21.8,2 
TCOON,ioos:station:TCOON:171:1,2014-05-16T07:00:00Z,27.4847,-97.3181,0.0,21.6,2 
TCOON,ioos:station:TCOON:171:1,2014-05-16T08:00:00Z,27.4847,-97.3181,0.0,21.3,2 
TCOON,ioos:station:TCOON:171:1,2014-05-16T09:00:00Z,27.4847,-97.3181,0.0,21.1,2 
TCOON,ioos:station:TCOON:171:1,2014-05-16T10:00:00Z,27.4847,-97.3181,0.0,21.0,2 
TCOON,ioos:station:TCOON:171:1,2014-05-16T11:00:00Z,27.4847,-97.3181,0.0,20.9,2 
TCOON,ioos:station:TCOON:171:1,2014-05-16T12:00:00Z,27.4847,-97.3181,0.0,20.7,2 
TCOON,ioos:station:TCOON:171:1,2014-05-16T13:00:00Z,27.4847,-97.3181,0.0,20.7,2 
TCOON,ioos:station:TCOON:171:1,2014-05-16T14:00:00Z,27.4847,-97.3181,0.0,21.0,2 
TCOON,ioos:station:TCOON:171:1,2014-05-16T15:00:00Z,27.4847,-97.3181,0.0,21.4,2 
TCOON,ioos:station:TCOON:171:1,2014-05-16T16:00:00Z,27.4847,-97.3181,0.0,21.8,2 
TCOON,ioos:station:TCOON:171:1,2014-05-16T17:00:00Z,27.4847,-97.3181,0.0,22.3,2 
TCOON,ioos:station:TCOON:171:1,2014-05-16T18:00:00Z,27.4847,-97.3181,0.0,22.6,2 
TCOON,ioos:station:TCOON:171:1,2014-05-16T19:00:00Z,27.4847,-97.3181,0.0,23.1,2 
TCOON,ioos:station:TCOON:171:1,2014-05-16T20:00:00Z,27.4847,-97.3181,0.0,23.3,2 
TCOON,ioos:station:TCOON:171:1,2014-05-16T21:00:00Z,27.4847,-97.3181,0.0,23.5,2 
TCOON,ioos:station:TCOON:171:1,2014-05-16T22:00:00Z,27.4847,-97.3181,0.0,23.7,2 
TCOON,ioos:station:TCOON:171:1,2014-05-16T23:00:00Z,27.4847,-97.3181,0.0,23.7,2 
TCOON,ioos:station:TCOON:171:1,2014-05-17T00:00:00Z,27.4847,-97.3181,0.0,23.5,2 
TCOON,ioos:station:TCOON:171:1,2014-05-17T01:00:00Z,27.4847,-97.3181,0.0,23.0,2 
TCOON,ioos:station:TCOON:171:1,2014-05-17T02:00:00Z,27.4847,-97.3181,0.0,22.5,2 
TCOON,ioos:station:TCOON:171:1,2014-05-17T03:00:00Z,27.4847,-97.3181,0.0,22.0,2 
TCOON,ioos:station:TCOON:171:1,2014-05-17T04:30:00Z,27.4847,-97.3181,0.0,21.7,2 
TCOON,ioos:station:TCOON:171:1,2014-05-17T05:30:00Z,27.4847,-97.3181,0.0,21.6,2 
TCOON,ioos:station:TCOON:171:1,2014-05-17T06:00:00Z,27.4847,-97.3181,0.0,21.6,2 
TCOON,ioos:station:TCOON:171:1,2014-05-17T07:00:00Z,27.4847,-97.3181,0.0,21.5,2 
TCOON,ioos:station:TCOON:171:1,2014-05-17T08:00:00Z,27.4847,-97.3181,0.0,21.4,2 
TCOON,ioos:station:TCOON:171:1,2014-05-17T09:00:00Z,27.4847,-97.3181,0.0,21.4,2 
TCOON,ioos:station:TCOON:171:1,2014-05-17T10:00:00Z,27.4847,-97.3181,0.0,21.4,2 
TCOON,ioos:station:TCOON:171:1,2014-05-17T11:00:00Z,27.4847,-97.3181,0.0,21.5,2 
TCOON,ioos:station:TCOON:171:1,2014-05-17T12:00:00Z,27.4847,-97.3181,0.0,21.6,2 
TCOON,ioos:station:TCOON:171:1,2014-05-17T13:00:00Z,27.4847,-97.3181,0.0,21.6,2 
TCOON,ioos:station:TCOON:171:1,2014-05-17T14:00:00Z,27.4847,-97.3181,0.0,21.7,2 
TCOON,ioos:station:TCOON:171:1,2014-05-17T15:00:00Z,27.4847,-97.3181,0.0,21.8,2 
TCOON,ioos:station:TCOON:171:1,2014-05-17T16:00:00Z,27.4847,-97.3181,0.0,22.0,2 
TCOON,ioos:station:TCOON:171:1,2014-05-17T17:00:00Z,27.4847,-97.3181,0.0,22.4,2 
TCOON,ioos:station:TCOON:171:1,2014-05-17T18:00:00Z,27.4847,-97.3181,0.0,22.8,2 
TCOON,ioos:station:TCOON:171:1,2014-05-17T19:00:00Z,27.4847,-97.3181,0.0,22.9,2 
TCOON,ioos:station:TCOON:171:1,2014-05-17T20:00:00Z,27.4847,-97.3181,0.0,23.2,2 
TCOON,ioos:station:TCOON:171:1,2014-05-17T21:00:00Z,27.4847,-97.3181,0.0,23.3,2 
TCOON,ioos:station:TCOON:171:1,2014-05-17T22:00:00Z,27.4847,-97.3181,0.0,23.4,2 
TCOON,ioos:station:TCOON:171:1,2014-05-17T23:00:00Z,27.4847,-97.3181,0.0,23.4,2 
TCOON,ioos:station:TCOON:171:1,2014-05-18T00:00:00Z,27.4847,-97.3181,0.0,23.3,2 
TCOON,ioos:station:TCOON:171:1,2014-05-18T01:00:00Z,27.4847,-97.3181,0.0,23.1,2 
TCOON,ioos:station:TCOON:171:1,2014-05-18T02:00:00Z,27.4847,-97.3181,0.0,22.9,2 
TCOON,ioos:station:TCOON:171:1,2014-05-18T03:00:00Z,27.4847,-97.3181,0.0,22.7,2 
TCOON,ioos:station:TCOON:171:1,2014-05-18T04:00:00Z,27.4847,-97.3181,0.0,22.6,2 
TCOON,ioos:station:TCOON:171:1,2014-05-18T05:00:00Z,27.4847,-97.3181,0.0,22.5,2 
TCOON,ioos:station:TCOON:171:1,2014-05-18T06:00:00Z,27.4847,-97.3181,0.0,22.4,2 
TCOON,ioos:station:TCOON:171:1,2014-05-18T07:00:00Z,27.4847,-97.3181,0.0,22.4,2 
TCOON,ioos:station:TCOON:171:1,2014-05-18T08:00:00Z,27.4847,-97.3181,0.0,22.7,2 
TCOON,ioos:station:TCOON:171:1,2014-05-18T09:00:00Z,27.4847,-97.3181,0.0,22.4,2 
TCOON,ioos:station:TCOON:171:1,2014-05-18T10:00:00Z,27.4847,-97.3181,0.0,22.3,2 
TCOON,ioos:station:TCOON:171:1,2014-05-18T11:00:00Z,27.4847,-97.3181,0.0,22.1,2 
TCOON,ioos:station:TCOON:171:1,2014-05-18T12:00:00Z,27.4847,-97.3181,0.0,22.0,2 
TCOON,ioos:station:TCOON:171:1,2014-05-18T13:00:00Z,27.4847,-97.3181,0.0,21.9,2 
TCOON,ioos:station:TCOON:171:1,2014-05-18T14:00:00Z,27.4847,-97.3181,0.0,22.2,2 
TCOON,ioos:station:TCOON:171:1,2014-05-18T15:00:00Z,27.4847,-97.3181,0.0,22.4,2 
TCOON,ioos:station:TCOON:171:1,2014-05-18T16:00:00Z,27.4847,-97.3181,0.0,22.9,2 
TCOON,ioos:station:TCOON:171:1,2014-05-18T17:00:00Z,27.4847,-97.3181,0.0,23.5,2 
TCOON,ioos:station:TCOON:171:1,2014-05-18T18:00:00Z,27.4847,-97.3181,0.0,24.2,2 
TCOON,ioos:station:TCOON:171:1,2014-05-18T19:00:00Z,27.4847,-97.3181,0.0,24.9,2 
TCOON,ioos:station:TCOON:171:1,2014-05-18T20:00:00Z,27.4847,-97.3181,0.0,25.5,2 
TCOON,ioos:station:TCOON:171:1,2014-05-18T21:00:00Z,27.4847,-97.3181,0.0,25.5,2 
TCOON,ioos:station:TCOON:171:1,2014-05-18T22:00:00Z,27.4847,-97.3181,0.0,26.1,2 
TCOON,ioos:station:TCOON:171:1,2014-05-18T23:00:00Z,27.4847,-97.3181,0.0,25.8,2 
TCOON,ioos:station:TCOON:171:1,2014-05-19T00:00:00Z,27.4847,-97.3181,0.0,25.2,2 
TCOON,ioos:station:TCOON:171:1,2014-05-19T01:00:00Z,27.4847,-97.3181,0.0,25.1,2 
TCOON,ioos:station:TCOON:171:1,2014-05-19T02:00:00Z,27.4847,-97.3181,0.0,24.6,2 
TCOON,ioos:station:TCOON:171:1,2014-05-19T03:00:00Z,27.4847,-97.3181,0.0,24.8,2 
TCOON,ioos:station:TCOON:171:1,2014-05-19T04:00:00Z,27.4847,-97.3181,0.0,24.5,2 
TCOON,ioos:station:TCOON:171:1,2014-05-19T05:00:00Z,27.4847,-97.3181,0.0,24.0,2 
TCOON,ioos:station:TCOON:171:1,2014-05-19T07:00:00Z,27.4847,-97.3181,0.0,24.1,2 
TCOON,ioos:station:TCOON:171:1,2014-05-19T08:00:00Z,27.4847,-97.3181,0.0,24.1,2 
TCOON,ioos:station:TCOON:171:1,2014-05-19T09:00:00Z,27.4847,-97.3181,0.0,23.3,2 
TCOON,ioos:station:TCOON:171:1,2014-05-19T10:00:00Z,27.4847,-97.3181,0.0,23.3,2 
TCOON,ioos:station:TCOON:171:1,2014-05-19T11:00:00Z,27.4847,-97.3181,0.0,23.1,2 
TCOON,ioos:station:TCOON:171:1,2014-05-19T12:00:00Z,27.4847,-97.3181,0.0,23.1,2 
TCOON,ioos:station:TCOON:171:1,2014-05-19T13:00:00Z,27.4847,-97.3181,0.0,23.2,2 